Location: Belvedere Island
(37.8769°N, 122.4713°W)
Time: 11:33:47
(UTC+00:00)

Daily predictions for brighter satellites

Satellite Brightness Start Highest point End
(mag) Time Altitude Azimuth Time Altitude Azimuth Time Altitude Azimuth
Cosmos 1727 Rocket 4.5 12:05:15 10° N 12:11:30 68° E 12:17:46 10° SSE
NOSS 0 Rocket 4.4 12:06:35 10° NW 12:12:15 38° WSW 12:17:56 10° S
SL-8 Rocket 4.5 12:08:35 10° SSW 12:14:21 42° WNW 12:20:08 10° N
Thor Agena Rocket 3.6 12:09:57 10° N 12:15:12 72° WNW 12:20:26 10° SSW
Tiangong -1.8 12:16:09 10° WNW 12:19:13 66° NNE 12:22:16 10° E
Cosmos 1538 Rocket 4.2 12:14:58 10° NNW 12:20:09 80° ENE 12:25:21 10° SSE
